Simultaneous Nadir Overpasses (SNOs) Predictions

Prediction of SNOs between AQUA and NOAA-19 Satellite Orbit:

Table of predicted SNOs for the next 14.0 days since TLE Epoch: 7/20/2024
Index Date (AQUA) Time (AQUA) Lat,Lon (AQUA) SZA (AQUA ) Date (NOAA-19) Time (NOAA-19) Lat,Lon (NOAA-19) SZA (NOAA-19 ) Distance(km) Time Diff (sec)
1 07/21/2024 10:49:25 75.69, 16.08 55.31 07/21/2024 10:49:07 75.72, 16.10 55.34 3.39 18
2 07/21/2024 11:38:48 -75.78,-176.53 124.59 07/21/2024 11:40:00 -75.78,-176.41 124.60 3.23 72
3 07/23/2024 14:39:09 -75.71, 138.63 124.23 07/23/2024 14:38:56 -75.70, 138.64 124.24 1.24 13
4 07/23/2024 15:28:42 76.24, -55.38 56.34 07/23/2024 15:29:47 76.26, -52.13 56.31 85.95 65
5 07/25/2024 18:28:52 75.70, -98.73 56.22 07/25/2024 18:28:53 75.71, -98.75 56.24 1.78 1
6 07/27/2024 21:29:04 75.31,-142.63 56.30 07/27/2024 21:27:57 75.24,-144.98 56.27 66.77 67
7 07/27/2024 22:18:34 -75.74, 23.78 123.25 07/27/2024 22:18:41 -75.73, 23.89 123.26 3.36 7
8 07/30/2024 01:18:51 -75.65, -21.00 122.84 07/30/2024 01:17:38 -75.57, -21.31 122.91 12.37 73
9 07/30/2024 02:08:14 75.70, 146.49 57.23 07/30/2024 02:08:38 75.70, 146.38 57.23 3.04 24
10 08/01/2024 05:08:31 75.68, 101.54 57.73 08/01/2024 05:07:32 75.66, 101.57 57.72 2.10 59



Historial Predications of SNOs between AQUA and NOAA-19
